User: anonymous   Login
Location: Muenchen
(48.1800°N, 11.5800°E)
Time: 10:06:09
(UTC+01:00)
Language:

Tiros 1 - Orbit

View from above orbital plane
View from above orbital plane
View from above satellite
View from above satellite

Ground track
Ground track

The orbit data is extracted from the following two-line orbital elements,

1 00029U 60002B   14304.08198886  .00000727  00000-0  14198-3 0  3681
2 00029 048.3792 289.6465 0023966 078.2403 282.1195 14.73393221915273
Epoch (UTC): 31 October 2014 01:58:03
Eccentricity: 0.0023966
inclination: 48.3792°
perigee height: 633 km
apogee height: 667 km
right ascension of ascending node: 289.6465°
argument of perigee: 78.2403°
revolutions per day: 14.73393221
mean anomaly at epoch: 282.1195°
orbit number at epoch: 91527

The dashed part of the orbit path shows where the satellite is in the earth's shadow,  

DLR